{"data":{"norad_id":67791,"epoch":"2026-05-24T14:23:56.077440Z","epoch_age_seconds":109763,"freshness":"FRESH","line1":"1 67791U 26030AD  26144.59995460  .00009081  00000+0  26463-3 0  9996","line2":"2 67791  51.8817 213.3698 0011247 331.2055  28.8309 15.36076325 16755","mean_motion":15.36076325,"eccentricity":0.0011247,"inclination_deg":51.8817,"raan_deg":213.3698,"arg_perigee_deg":331.2055,"mean_anomaly_deg":28.8309,"bstar":0.00026463,"rev_number":1675,"period_min":93.745341723173,"perigee_km":450.03708625054,"apogee_km":465.41367508962,"semimajor_km":6835.8623806701,"source":"CELESTRAK","updated_at":"2026-05-25T13:38:07.263335Z"}}